Tracking 29892 objects as of 21-Nov-2024
HD Live streaming from Space Station
objects crossing your sky now

DELTA 1 DEB

Track DELTA 1 DEB now!
10-day predictions


NORAD ID: 12209
Int'l Code: 1978-026BA
Perigee: 733.8 km
Apogee: 814.6 km
Inclination: 98.7 °
Period: 100.2 minutes
Semi major axis: 7145 km
RCS: 0.0574 m2 (small)
Launch date: March 5, 1978
Source: United States (US)
Launch site: AIR FORCE WESTERN TEST RANGE (AFWTR)

Note: This is SATELLITE DEBRIS
Your satellite tracking list
Your tracking list is empty




NASA's NSSDC Master Catalog

Two Line Element Set (TLE):
1 12209U 78026BA  24325.90158937  .00002345  00000-0  78520-3 0  9994
2 12209  98.6656 343.1224 0056531 299.5970 147.9727 14.37405535265777
Source of the keplerian elements: AFSPC